DW7447 Weather Reports


Display with metric or nautical units.
time (UTC)temp
F
wind
direction
speed
MPH
gust
MPH
rain 1hr
in
rain 24hr
in
rain mn
in
humidity
%
barometer
mb
20260901171133 62 217 12.0 21.0 0.00 0.00 0.00 73 1015.5
20260901170634 62 195 5.0 20.0 0.00 0.00 0.00 73 1015.5
20260901170134 62 203 11.0 20.0 0.00 0.00 0.00 73 1015.5
20260901165635 62 230 5.0 23.0 0.00 0.00 0.00 73 1015.5
20260901165137 62 230 15.0 23.0 0.00 0.00 0.00 73 1015.5
20260901164635 62 217 10.0 18.0 0.00 0.00 0.00 74 1015.6
20260901163135 62 220 8.0 20.0 0.00 0.00 0.00 73 1015.5
20260901162633 62 214 9.0 18.0 0.00 0.00 0.00 73 1015.5
20260901162135 62 176 11.0 18.0 0.00 0.00 0.00 73 1015.3
20260901161636 62 202 10.0 18.0 0.00 0.00 0.00 73 1015.6
20260901160118 63 243 12.0 26.0 0.00 0.00 0.00 72 1015.3
20260901155616 63 247 13.0 26.0 0.00 0.00 0.00 72 1015.6
20260901155104 63 224 10.0 20.0 0.00 0.00 0.00 72 1015.6
20260901154604 63 235 12.0 20.0 0.00 0.00 0.00 71 1015.6
20260901154056 63 213 10.0 21.0 0.00 0.00 0.00 71 1015.6
20260901153535 63 195 16.0 26.0 0.00 0.02 0.00 71 1015.7
20260901153030 63 209 17.0 26.0 0.00 0.02 0.00 71 1015.5
20260901152535 63 200 11.0 23.0 0.00 0.02 0.00 71 1015.6
20260901152034 63 227 16.0 23.0 0.00 0.02 0.00 71 1015.5
20260901151533 63 207 9.0 19.0 0.00 0.02 0.00 72 1015.6
20260901151014 63 206 7.0 16.0 0.00 0.02 0.00 72 1015.6
20260901150510 63 200 4.0 21.0 0.00 0.02 0.00 72 1015.6
20260901150004 64 223 9.0 21.0 0.00 0.02 0.00 71 1015.5
20260901145002 64 228 17.0 26.0 0.00 0.02 0.00 71 1015.4
20260901144505 64 220 8.0 18.0 0.00 0.02 0.00 71 1015.5
20260901143955 64 220 10.0 22.0 0.00 0.02 0.00 72 1015.2
20260901143435 64 206 11.0 25.0 0.00 0.02 0.00 72 1015.2
20260901142922 64 217 16.0 25.0 0.00 0.02 0.00 71 1015.3
20260901142407 64 228 11.0 22.0 0.00 0.02 0.00 72 1015.2
20260901141904 64 240 13.0 22.0 0.00 0.02 0.00 71 1015.2
20260901140905 64 238 15.0 29.0 0.00 0.02 0.00 71 1015.2
20260901140404 64 219 11.0 21.0 0.00 0.02 0.00 73 1015.4
20260901135908 64 230 11.0 24.0 0.00 0.02 0.00 73 1015.3
20260901135406 64 227 11.0 24.0 0.00 0.02 0.00 72 1015.2
20260901134332 64 224 15.0 22.0 0.00 0.02 0.00 72 1015.4
20260901132832 64 228 15.0 22.0 0.00 0.02 0.00 70 1015.5
20260901131800 65 228 12.0 26.0 0.00 0.02 0.00 69 1015.2
20260901131250 65 207 14.0 26.0 0.00 0.02 0.00 69 1015.2
20260901130733 65 235 16.0 28.0 0.00 0.02 0.00 71 1015.3
20260901130233 64 262 16.0 28.0 0.00 0.02 0.00 71 1015.2
20260901125721 65 196 9.0 21.0 0.00 0.02 0.00 71 1015.3
20260901124708 65 237 9.0 20.0 0.00 0.02 0.00 71 1015.6
20260901124205 64 230 7.0 23.0 0.00 0.02 0.00 71 1015.6
20260901123638 64 245 11.0 23.0 0.00 0.02 0.00 71 1015.7
20260901123134 64 282 11.0 18.0 0.00 0.02 0.00 71 1015.7
20260901122635 64 207 9.0 18.0 0.00 0.02 0.00 73 1015.7
20260901121607 63 251 16.0 23.0 0.00 0.02 0.00 73 1015.8
20260901121106 63 182 6.0 18.0 0.00 0.02 0.00 73 1015.6
20260901120104 63 186 10.0 17.0 0.00 0.02 0.00 73 1015.7
20260901115031 63 197 11.0 24.0 0.00 0.02 0.00 74 1015.7
20260901114532 63 237 9.0 24.0 0.00 0.02 0.00 73 1015.6
20260901114035 63 248 13.0 20.0 0.00 0.02 0.00 73 1015.6
20260901113532 63 255 8.0 22.0 0.00 0.02 0.00 73 1015.6
20260901113038 63 219 11.0 22.0 0.00 0.02 0.00 73 1015.6
20260901112033 63 220 9.0 25.0 0.00 0.02 0.00 72 1015.6
20260901111033 63 231 8.0 19.0 0.00 0.02 0.00 72 1015.6
20260901110533 63 217 10.0 21.0 0.00 0.02 0.00 72 1015.7
20260901110033 64 241 12.0 21.0 0.00 0.02 0.00 71 1015.6
20260901105533 64 200 10.0 20.0 0.00 0.02 0.00 72 1015.6
20260901104532 63 217 8.0 20.0 0.00 0.02 0.00 73 1015.6
20260901103532 63 233 10.0 21.0 0.00 0.02 0.00 73 1015.6
20260901103035 63 245 13.0 21.0 0.00 0.02 0.00 73 1015.6
20260901102534 63 233 12.0 21.0 0.00 0.02 0.00 75 1015.6
20260901101034 62 213 14.0 24.0 0.00 0.02 0.00 75 1015.7
20260901100031 62 233 12.0 26.0 0.00 0.02 0.00 75 1015.8
20260901094534 63 230 15.0 23.0 0.00 0.02 0.00 73 1015.8
20260901094034 63 217 15.0 23.0 0.00 0.02 0.00 73 1015.7
20260901093533 63 265 11.0 22.0 0.00 0.02 0.00 74 1015.7
20260901093035 62 251 12.0 19.0 0.00 0.02 0.00 75 1015.7
20260901092034 62 202 8.0 24.0 0.00 0.02 0.00 77 1015.8
20260901091033 60 212 15.0 24.0 0.00 0.02 0.00 78 1015.8
20260901090533 60 199 13.0 23.0 0.00 0.02 0.00 79 1015.8
20260901085032 60 216 11.0 20.0 0.00 0.02 0.00 80 1016.0
20260901084534 59 223 13.0 25.0 0.00 0.02 0.00 80 1016.0
20260901084033 59 243 7.0 25.0 0.00 0.02 0.00 80 1015.8
20260901083533 59 189 9.0 18.0 0.00 0.02 0.00 81 1015.8
20260901083035 58 227 10.0 20.0 0.00 0.02 0.00 81 1015.7
20260901082032 58 189 14.0 22.0 0.00 0.02 0.00 81 1015.8
20260901081533 58 303 7.0 20.0 0.00 0.02 0.00 82 1015.8
20260901081033 58 282 8.0 20.0 0.00 0.02 0.00 83 1015.8
20260901080534 57 238 11.0 19.0 0.00 0.02 0.00 83 1015.7
20260901080031 57 238 8.0 18.0 0.00 0.02 0.00 83 1015.8
20260901075533 57 203 10.0 18.0 0.00 0.02 0.00 83 1015.8
20260901075034 57 227 10.0 18.0 0.00 0.02 0.00 84 1015.7
20260901074533 57 180 11.0 18.0 0.00 0.02 0.00 84 1015.8
20260901074033 57 216 9.0 17.0 0.00 0.02 0.00 84 1015.7
20260901073533 56 233 7.0 14.0 0.00 0.02 0.00 84 1015.7
20260901071531 56 202 9.0 16.0 0.00 0.02 0.00 85 1015.8
20260901070531 55 220 8.0 17.0 0.00 0.02 0.00 86 1015.8
20260901070034 55 230 8.0 16.0 0.00 0.02 0.00 86 1015.7
20260901065534 55 255 9.0 17.0 0.00 0.02 0.00 86 1015.6
20260901064533 55 224 10.0 17.0 0.00 0.02 0.00 86 1015.7
20260901064032 55 197 11.0 16.0 0.00 0.02 0.00 86 1015.7
20260901063033 55 238 6.0 12.0 0.00 0.02 0.00 87 1015.8
20260901062035 54 237 7.0 14.0 0.00 0.02 0.00 87 1015.9
20260901061532 54 210 10.0 15.0 0.00 0.02 0.00 87 1015.7
20260901061035 54 213 9.0 15.0 0.00 0.02 0.00 87 1015.7
20260901060013 54 254 7.0 14.0 0.00 0.02 0.00 87 1015.9
20260901055504 53 230 8.0 14.0 0.00 0.02 0.00 87 1015.8
20260901055004 53 237 5.0 9.0 0.00 0.02 0.00 87 1015.8
20260901054504 53 233 4.0 8.0 0.00 0.02 0.00 87 1015.8
20260901054001 53 264 3.0 11.0 0.00 0.02 0.00 87 1015.8
20260901053501 53 233 6.0 11.0 0.00 0.02 0.00 87 1015.7
20260901052943 53 257 6.0 13.0 0.00 0.02 0.00 87 1015.8
20260901052442 53 204 7.0 14.0 0.00 0.02 0.00 87 1015.7
20260901051432 53 240 6.0 13.0 0.00 0.02 0.00 87 1015.6
20260901050444 53 207 5.0 13.0 0.00 0.02 0.00 87 1015.6
20260901045931 53 261 4.0 13.0 0.00 0.02 0.00 88 1015.7
20260901045434 52 210 4.0 13.0 0.00 0.02 0.00 88 1015.7
20260901044933 52 223 3.0 8.0 0.00 0.02 0.00 89 1015.7
20260901044434 52 231 4.0 12.0 0.00 0.02 0.00 89 1015.8
20260901043433 51 220 6.0 12.0 0.00 0.02 0.00 90 1015.8
20260901042932 51 241 3.0 12.0 0.00 0.02 0.00 92 1015.7
20260901042432 51 220 7.0 13.0 0.00 0.02 0.00 92 1015.6
20260901041937 50 213 6.0 13.0 0.00 0.02 0.00 92 1015.7
20260901041415 49 259 3.0 8.0 0.00 0.02 0.00 91 1015.7
20260901040912 49 250 4.0 8.0 0.00 0.02 0.00 91 1015.7
20260901040412 49 295 2.0 11.0 0.00 0.02 0.00 91 1015.7
20260901035850 49 275 2.0 11.0 0.00 0.02 0.00 91 1015.7
20260901035346 49 247 2.0 8.0 0.00 0.02 0.00 91 1015.8
20260901034841 49 271 2.0 6.0 0.00 0.02 0.00 90 1015.9
20260901034337 49 271 3.0 6.0 0.00 0.02 0.00 90 1015.8
20260901033830 49 257 3.0 6.0 0.00 0.02 0.00 90 1015.9
20260901032832 49 274 3.0 7.0 0.00 0.02 0.00 90 1015.8
20260901032307 49 279 4.0 8.0 0.00 0.02 0.00 90 1015.7
20260901031809 48 224 4.0 8.0 0.00 0.02 0.00 90 1015.8
20260901031304 48 269 3.0 7.0 0.00 0.02 0.00 90 1015.9
20260901030804 49 265 3.0 6.0 0.00 0.02 0.00 89 1015.9
20260901030303 49 262 3.0 6.0 0.00 0.02 0.00 88 1015.9
20260901025804 49 251 3.0 7.0 0.00 0.02 0.00 88 1015.9
20260901024802 49 250 2.0 9.0 0.00 0.02 0.00 88 1015.8
20260901024304 49 262 3.0 9.0 0.00 0.02 0.00 87 1015.9
20260901023258 50 271 3.0 7.0 0.00 0.02 0.00 86 1015.9
20260901022755 50 244 4.0 8.0 0.00 0.02 0.00 85 1015.9
20260901022239 51 266 4.0 7.0 0.00 0.02 0.00 85 1016.0
20260901021732 51 261 3.0 8.0 0.00 0.02 0.00 85 1016.0
20260901021234 51 282 3.0 11.0 0.00 0.02 0.00 85 1016.1
20260901020733 52 200 5.0 11.0 0.00 0.02 0.00 85 1016.1
20260901020232 52 248 6.0 11.0 0.00 0.02 0.00 85 1016.0
20260901015731 52 195 6.0 11.0 0.00 0.02 0.00 85 1016.0
20260901015232 52 221 6.0 13.0 0.00 0.02 0.00 85 1015.9
20260901014733 51 233 7.0 13.0 0.00 0.02 0.00 85 1015.9
20260901013733 51 207 7.0 11.0 0.00 0.02 0.00 86 1015.9
20260901013233 51 257 5.0 8.0 0.00 0.02 0.00 85 1016.0
20260901012730 51 251 3.0 8.0 0.00 0.02 0.00 84 1015.9
20260901011733 52 243 5.0 13.0 0.00 0.02 0.00 84 1016.0
20260901011231 52 279 7.0 13.0 0.00 0.02 0.00 84 1015.9
20260901010731 52 237 4.0 13.0 0.00 0.02 0.00 84 1015.9
20260901010229 52 226 9.0 13.0 0.00 0.02 0.00 84 1015.8
20260901005734 52 217 9.0 13.0 0.00 0.02 0.00 84 1015.8
20260901005231 52 252 6.0 13.0 0.00 0.02 0.00 84 1015.7
20260901004731 52 221 5.0 13.0 0.00 0.02 0.00 84 1015.8
20260901004231 52 251 6.0 14.0 0.00 0.02 0.00 84 1015.7
20260901003230 52 259 3.0 12.0 0.00 0.02 0.00 84 1015.7
20260901002730 52 250 4.0 12.0 0.00 0.02 0.00 84 1015.8
20260901002233 52 254 6.0 14.0 0.00 0.02 0.00 84 1015.7
20260901001731 52 213 8.0 14.0 0.00 0.02 0.00 84 1015.7
20260901001230 52 226 8.0 13.0 0.00 0.02 0.00 84 1015.7
20260901000229 52 210 7.0 12.0 0.00 0.02 0.00 83 1015.7
20260831235733 52 240 6.0 11.0 0.00 0.02 0.00 83 1015.7
20260831235232 52 274 4.0 11.0 0.00 0.02 0.00 83 1015.7
20260831234736 52 230 6.0 11.0 0.00 0.02 0.00 83 1015.6
20260831234231 52 209 5.0 11.0 0.00 0.02 0.00 84 1015.7
20260831233732 52 244 5.0 13.0 0.00 0.02 0.00 84 1015.6
20260831233233 52 278 7.0 13.0 0.00 0.02 0.00 84 1015.6
20260831232730 52 235 5.0 13.0 0.00 0.02 0.00 84 1015.6
20260831232232 52 243 6.0 12.0 0.00 0.02 0.00 84 1015.5
20260831231232 52 237 6.0 11.0 0.00 0.02 0.00 84 1015.6
20260831230733 52 241 7.0 11.0 0.00 0.02 0.00 84 1015.5
20260831230238 52 259 6.0 12.0 0.00 0.02 0.00 84 1015.5
20260831225720 52 237 7.0 12.0 0.00 0.02 0.02 84 1015.5
20260831225219 52 235 3.0 11.0 0.00 0.02 0.02 84 1015.6
20260831224706 52 220 4.0 12.0 0.00 0.02 0.02 83 1015.5
20260831223704 52 261 3.0 9.0 0.00 0.02 0.02 82 1015.5
20260831223141 53 265 4.0 11.0 0.00 0.02 0.02 82 1015.5
20260831222635 53 266 5.0 13.0 0.00 0.02 0.02 82 1015.4
20260831222132 53 248 5.0 13.0 0.00 0.02 0.02 82 1015.5
20260831221632 53 240 5.0 13.0 0.00 0.02 0.02 82 1015.4
20260831221132 53 223 4.0 11.0 0.00 0.02 0.02 81 1015.3
20260831220633 53 238 5.0 11.0 0.00 0.02 0.02 81 1015.3
20260831220134 53 289 5.0 9.0 0.00 0.02 0.02 81 1015.2
20260831215632 53 243 6.0 11.0 0.00 0.02 0.02 81 1015.2
20260831215133 53 195 4.0 11.0 0.00 0.02 0.02 80 1015.2
20260831214632 53 241 5.0 11.0 0.00 0.02 0.02 80 1015.2
20260831214133 53 250 5.0 11.0 0.00 0.02 0.02 80 1015.1
20260831213632 53 250 5.0 11.0 0.00 0.02 0.02 80 1015.2
20260831212632 53 257 7.0 12.0 0.00 0.02 0.02 80 1015.2
20260831212133 53 237 5.0 11.0 0.00 0.02 0.02 79 1015.2
20260831211633 53 251 5.0 11.0 0.00 0.02 0.02 79 1015.2
20260831210631 54 261 2.0 9.0 0.00 0.02 0.02 80 1015.2
20260831210131 54 261 4.0 9.0 0.00 0.02 0.02 80 1015.1
20260831205633 54 248 2.0 8.0 0.00 0.02 0.02 80 1015.0
20260831205132 54 224 3.0 8.0 0.00 0.02 0.02 79 1014.9
20260831204631 54 230 3.0 8.0 0.00 0.02 0.02 79 1014.8
20260831204132 54 212 4.0 8.0 0.00 0.02 0.02 79 1014.8
20260831203630 54 224 3.0 8.0 0.00 0.02 0.02 80 1014.8
20260831203132 55 262 5.0 8.0 0.00 0.02 0.02 80 1014.7
20260831201632 55 193 4.0 8.0 0.00 0.06 0.02 79 1014.8
20260831200631 55 243 4.0 8.0 0.00 0.08 0.02 80 1014.6
20260831200132 55 255 4.0 8.0 0.00 0.09 0.02 80 1014.6
20260831195133 56 221 4.0 7.0 0.00 0.12 0.02 79 1014.3
20260831194632 56 257 3.0 8.0 0.00 0.13 0.02 79 1014.2
20260831194132 56 237 4.0 8.0 0.00 0.13 0.02 77 1014.2
20260831193631 56 233 4.0 7.0 0.00 0.13 0.02 77 1014.0
20260831192631 57 262 2.0 11.0 0.00 0.13 0.02 76 1013.9
20260831192130 57 292 4.0 12.0 0.00 0.13 0.02 76 1013.8
20260831191626 57 240 5.0 12.0 0.00 0.13 0.02 75 1013.9
20260831191118 57 234 6.0 14.0 0.00 0.13 0.02 75 1013.8
20260831190106 57 238 10.0 17.0 0.00 0.13 0.02 76 1013.6
20260831185543 58 224 5.0 15.0 0.00 0.13 0.02 76 1013.4
20260831185034 58 237 6.0 9.0 0.00 0.13 0.02 77 1013.3
20260831184534 58 259 5.0 9.0 0.00 0.13 0.02 78 1013.2
20260831184032 58 259 4.0 11.0 0.00 0.13 0.02 77 1013.1
20260831183531 59 238 4.0 12.0 0.00 0.13 0.02 77 1013.1
20260831182533 59 271 5.0 14.0 0.00 0.14 0.02 76 1012.8
20260831182031 60 251 5.0 12.0 0.00 0.14 0.02 74 1012.8
20260831181533 60 259 6.0 16.0 0.00 0.14 0.02 74 1012.7
20260831181030 61 244 6.0 23.0 0.00 0.14 0.02 73 1012.6
20260831180531 61 269 11.0 23.0 0.00 0.14 0.02 72 1012.5
20260831175533 62 293 9.0 20.0 0.00 0.14 0.02 70 1012.4
20260831175030 62 281 11.0 19.0 0.00 0.14 0.02 70 1012.4
20260831174528 63 265 12.0 19.0 0.00 0.14 0.02 70 1012.2
20260831174030 63 278 11.0 18.0 0.00 0.14 0.02 70 1012.1
20260831173529 63 278 11.0 18.0 0.00 0.14 0.02 70 1012.1
20260831172020 63 255 5.0 16.0 0.00 0.14 0.02 71 1011.7